Flag for Russia Weather past 2 weeks in Gelendzhik, Russia

Now
45 °F

Cloudy.


Feels Like: 38 °F
Forecast: 47 / 54 °F
Wind: 13 mph from West

Location: Anapa / Vitiazevo

Current Time: Jan 29, 2015 at 4:07:21 PM

Latest Report: Jan 29, 2015 at 3:30 PM


Visibility: N/A

Pressure: 29.80 "Hg

Humidity: 87%

Dew point: 41 °F

Location of GelendzhikLocation

Historic Weather in Gelendzhik — Graph

°F

Gelendzhik temperature yesterday

Maximum temperature yesterday: 50 °F (at 1:00 PM)
Minimum temperature yesterday: 36 °F (at 1:00 AM)
Average temperature yesterday: 42 °F

Past Weeks' High & Low Weather Summary

 TemperatureHumidityPressure
High57 °F (Jan 22, 1:00 PM)100% (Jan 16, 1:00 AM)30.39 "Hg (Jan 16, 1:00 AM)
Low27 °F (Jan 18, 1:00 AM)59% (Jan 22, 2:00 PM)29.74 "Hg (Jan 28, 3:00 PM)
Average43 °F83%30.12 "Hg
* Reported Jan 14 2:00 PM — Jan 29 2:30 PM, Gelendzhik, Weather by CustomWeather, © 2014

Note: Actual official high and low records may vary slightly from our data, if they occured in-between our weather recording intervals... More about our weather records

Advertising

Gelendzhik weather history for previous 24 hours

 ConditionsComfort  
Time TempWeatherWind HumidityBarometerVisibility
2:30 PM
Jan 29
45 °FCloudy.15 mph87%29.77 "HgN/A
2:00 PM45 °FBroken clouds.15 mph87%29.77 "HgN/A
1:30 PM45 °FBroken clouds.17 mph87%29.77 "HgN/A
1:00 PM45 °FBroken clouds.17 mph87%29.77 "HgN/A
12:30 PM45 °FBroken clouds.20 mph87%29.77 "HgN/A
12:00 PM45 °FBroken clouds.17 mph87%29.77 "HgN/A
11:30 AM45 °FBroken clouds.17 mph93%29.77 "HgN/A
11:00 AM46 °FSprinkles. Broken clouds.15 mph87%29.77 "HgN/A
10:30 AM46 °FSprinkles. Broken clouds.20 mph87%29.77 "HgN/A
10:00 AM46 °FSprinkles. Broken clouds.17 mph93%29.74 "HgN/A
9:30 AM48 °FPartly sunny.17 mph82%29.74 "HgN/A
9:00 AM46 °FBroken clouds.17 mph87%29.77 "HgN/A
8:30 AM46 °FPassing clouds.17 mph87%29.74 "HgN/A
8:00 AM46 °FPassing clouds.17 mph87%29.74 "HgN/A
7:30 AM46 °FPassing clouds.17 mph87%29.74 "HgN/A
7:00 AM48 °FPassing clouds.13 mph82%29.74 "HgN/A
6:30 AM48 °FPassing clouds.13 mph82%29.74 "HgN/A
6:00 AM48 °FPartly cloudy.13 mph82%29.74 "HgN/A
5:00 AM48 °FMostly cloudy.10 mph82%29.74 "HgN/A
4:00 AM48 °FMostly cloudy.13 mph82%29.74 "HgN/A
3:00 AM48 °FMostly cloudy.10 mph87%29.74 "HgN/A
2:00 AM48 °FMostly cloudy.10 mph82%29.74 "HgN/A
1:00 AM46 °FFog.10 mph93%29.74 "Hg3 mi
12:00 AM43 °FSprinkles. Fog.10 mph93%29.74 "Hg2 mi
11:00 PM
Jan 28
41 °FSprinkles. Fog.13 mph93%29.74 "Hg2 mi
10:00 PM41 °FSprinkles. Fog.17 mph93%29.74 "Hg2 mi
9:00 PM41 °FSprinkles. Fog.13 mph93%29.77 "Hg2 mi
8:00 PM43 °FSprinkles. Fog.10 mph87%29.77 "Hg2 mi
7:30 PM43 °FSprinkles. Fog.10 mph87%29.77 "Hg3 mi
7:00 PM45 °FLight rain. Overcast.13 mph76%29.77 "HgN/A
6:30 PM43 °FSunny.10 mph81%29.77 "Hg10 mi
6:00 PM43 °FSunny.13 mph81%29.77 "Hg10 mi
5:30 PM43 °FSunny.15 mph81%29.77 "Hg10 mi
5:00 PM43 °FSunny.13 mph81%29.77 "Hg10 mi
4:30 PM43 °FSunny.13 mph76%29.77 "Hg10 mi
4:00 PM45 °FSunny.13 mph76%29.77 "Hg10 mi
Weather by CustomWeather, © 2014

See weather overviewHow to use our weather pages